Location: Haliburton Scout Reserve
(45.0900°N, 78.3200°W)
Time: 03:02:43
(UTC-04:00)

NANOSAT C BR1 - Pass Details

Date: 24 May 2022
Orbit: 583 x 601 km, 98.0° (Epoch: 27 June)

Event Time Altitude Azimuth Distance (km) Brightness Sun altitude
Rises 02:49:57 0° 20° (NNE) 2,820 ? -20.3°
Reaches altitude 10° 02:52:14 10° 28° (NNE) 1,914 ? -20.1°
Maximum altitude 02:56:08 39° 98° (E) 880 ? -19.8°
Enters shadow 02:57:43 28° 145° (SE) 1,114 ? -19.7°
